Location: Colonia Mina de C?rbuni
(46.1667°N, 22.7167°E)
Time: 06:09:14
(UTC+00:00)

Tiros 1 - Pass Details

Date: 22 April 2024
Orbit: 624 x 657 km, 48.4° (Epoch: 25 May)

Event Time Altitude Azimuth Distance (km) Brightness Sun altitude
Exits shadow 23:47:51 42° 62° (ENE) 905 8.1 -28.5°
Drops below altitude 10° 23:50:59 10° 77° (ENE) 2,001 10.1 -28.3°
Sets 23:53:18 0° 80° (E) 2,905 11.0 -28.1°
